ELEKTRO-L 1 (GOMS 2)

Last updated on Mon Sep 04 2017 00:17:59 GMT+0000 (Coordinated Universal Time)

1 37344U 11001A 17246.09076992 -.00000267 00000-0 00000+0 0 9991 2 37344 2.5923 77.6536 0003192 282.9318 302.8841 1.00173080 24288
UTC large
Height (km)
Speed (km/s)
/
Latitude / Longitude
Inclination (degrees)
Orbital Period (minutes)
Azimuth
Elevation
Range (km)
Doppler Factor

Next 0 passes for location: London (51.5072 / 0.1276)

Sorry there are no passes over London.